www.pogodaiklimat.ru

Погода и климат >> Архив погоды >> Филиппины >> Балер Радар


ПОГОДА в Балер Радар

  • Прогноз погоды в Балер Радар
  • Монитор погоды в Балер Радар

АРХИВ ПОГОДЫ в Балер Радар

Время (UTC), дата Ветер
(напр.,м/с)
 
Видим.   Явления Облачность Т
(С)
Тd
(С)
f
(%)
Тe
(С)
Тes
(С)
Комфортность P
(гПа)
Po
(гПа)
Тmin
(С)
Tmax
(С)
R
(мм)
R24
(мм)
S
(см)
12 14.08 З 4 15 км 6/1 540 м
[Cu med, cong Ac trans]
+27.8 +24.8 84 +40 +40 очень
душно
1007.8 987.7 +34.0
15 14.08 З 1 15 км 8/1 540 м
[Cu med, cong Cs]
+27.2 +27.3 100 +43 +43 опасность
перегрева
1007.8 987.7
18 14.08 З 2 15 км 10/1 540 м
[Cu med, cong Cs]
+27.0 +24.4 86 +38 +38 очень
душно
1007.5 987.4
21 14.08 З 5 15 км 10/1 540 м
[Cu med, cong Cs]
+27.0 +24.4 86 +38 +38 очень
душно
1007.1 987.0
00 15.08 З 3 25 км 10/1 540 м
[Cu med, cong Cs]
+28.2 +25.4 85 +41 +45 опасность
перегрева
1008.4 988.2 +25.8
03 15.08 З 2 25 км 10/1 540 м
[Cu med, cong Ac As]
+32.2 +28.2 79 +53 +59 опасность
перегрева
1008.3 988.2
06 15.08 штиль 0 25 км 8/4 540 м
[Cu med, cong Cs]
+32.8 +28.7 79 +55 +67 опасность
перегрева
1007.0 987.0
09 15.08 штиль 0 25 км 9/3 540 м
[Cu med, cong Cs]
+30.3 +26.6 81 +47 +48 опасность
перегрева
1007.1 987.0
12 15.08 З 3 15 км 8/3 540 м
[Cu med, cong Cs]
+28.0 +25.4 86 +41 +41 опасность
перегрева
1008.3 988.2 +34.0
15 15.08 З 3 15 км 8/3 540 м
[Cu med, cong Cs]
+28.0 +25.4 86 +41 +41 опасность
перегрева
1008.3 988.2 +34.0
18 15.08 З 4 15 км 10/3 540 м
[Cu med, cong Cs]
+28.0 +25.4 86 +41 +41 опасность
перегрева
1008.8 988.7
21 15.08 З 4 15 км 10/1 540 м
[Cu med, cong Cs]
+27.0 +24.4 86 +38 +38 очень
душно
1008.1 988.0
00 16.08 З 5 25 км 10/1 540 м
[Cu med, cong Cs]
+27.8 +24.7 83 +39 +42 очень
душно
1009.4 989.2 +26.0
03 16.08 З 3 30 км 10/1 540 м
[Cu med, cong Cs]
+30.0 +27.5 86 +48 +61 опасность
перегрева
1009.0 989.0
06 16.08 З 5 30 км 8/3 540 м
[Cu med, cong Cs]
+33.2 +26.9 70 +51 +56 опасность
перегрева
1007.8 987.8
09 16.08 СЗ 5 30 км 6/3 540 м
[Cu med, cong Cs]
+32.3 +25.4 67 +47 +47 опасность
перегрева
1008.0 988.0
12 16.08 СЗ 4 18 км зарница 6/3 500 м
[Cb cap Cs]
+28.9 +24.6 78 +41 +41 опасность
перегрева
1009.2 989.0 +34.7
15 16.08 З 5 18 км 3/3 540 м
[Cu med, cong]
+27.9 +24.1 80 +39 +39 очень
душно
1010.4 990.3
18 16.08 З 5 18 км 3/3 540 м
[Cu med, cong]
+27.1 +24.2 84 +38 +38 очень
душно
1009.4 989.4
21 16.08 З 7 18 км 3/1 540 м
[Cu med, cong Ci fib]
+27.2 +23.2 79 +37 +37 очень
душно
1008.8 988.8
00 17.08 З 7 30 км 6/1 540 м
[Cu med, cong Cs]
+28.6 +25.2 82 +42 +43 опасность
перегрева
1009.7 989.6 +26.4
03 17.08 З 7 30 км 5/3 540 м
[Cu med, cong Ci fib]
+32.3 +26.8 73 +50 +54 опасность
перегрева
1009.2 989.2
06 17.08 З 6 30 км 8/3 540 м
[Cu med, cong Cs]
+34.0 +27.7 70 +54 +58 опасность
перегрева
1007.8 987.9
09 17.08 З 6 30 км 9/3 540 м
[Cu med, cong Cs]
+32.0 +26.9 74 +49 +50 опасность
перегрева
1007.0 987.0
12 17.08 З 7 15 км зарница 9/4 500 м
[Cb calv Ac As]
+29.3 +24.9 77 +42 +42 опасность
перегрева
1009.1 989.0 +35.4
15 17.08 З 7 15 км 8/3 540 м
[Cu med, cong Ac As]
+28.0 +24.1 79 +39 +39 очень
душно
1010.3 990.2
18 17.08 З 7 15 км 9/3 540 м
[Cu med, cong Ac As]
+27.9 +24.0 79 +39 +39 очень
душно
1008.9 988.9
21 17.08 З 7 15 км 9/3 540 м
[Cu med, cong Ac As]
+27.8 +23.2 76 +37 +37 очень
душно
1009.0 989.0
00 18.08 З 7 30 км 9/1 600 м
[Cu med, cong Cs]
+29.5 +25.1 77 +43 +44 опасность
перегрева
1009.8 989.7 +27.0
03 18.08 З 4 30 км 6/3 600 м
[Cu med, cong Cs]
+33.0 +28.1 76 +54 +63 опасность
перегрева
1010.1 990.0
06 18.08 З 3 30 км 5/3 600 м
[Cu med, cong Cs]
+33.6 +29.9 81 +60 +69 опасность
перегрева
1007.6 987.7
09 18.08 З 4 30 км 5/1 600 м
[Cu med, cong Cs]
+33.3 +28.3 75 +55 +56 опасность
перегрева
1006.0 986.1
12 18.08 З 5 15 км зарница 3/3 500 м
[Cb cap]
+28.5 +24.6 79 +40 +40 очень
душно
1007.6 987.5 +35.5
15 18.08 З 4 15 км 3/3 540 м
[Cu med, cong]
+28.0 +24.1 79 +39 +39 очень
душно
1008.9 988.9
18 18.08 З 6 15 км 3/3 540 м
[Cu med, cong]
+27.0 +23.7 82 +37 +37 очень
душно
1007.0 987.0
21 18.08 З 6 15 км 3/1 540 м
[Cu med, cong Ac trans]
+27.5 +22.3 73 +36 +36 очень
душно
1006.8 986.8
00 19.08 З 5 20 км 9/1 600 м
[Cu med, cong Cs]
+28.0 +24.6 82 +40 +42 очень
душно
1008.4 988.2 +26.5
03 19.08 С 4 30 км 9/1 600 м
[Cu med, cong Cs]
+31.7 +26.8 75 +49 +59 опасность
перегрева
1008.1 988.1
06 19.08 Ю 2 20 км 9/1 600 м
[Cu med, cong Cs]
+33.2 +27.2 71 +52 +64 опасность
перегрева
1006.8 986.8
09 19.08 Ю 2 20 км 9/1 540 м
[Cu med, cong Cs]
+30.2 +27.4 85 +48 +50 опасность
перегрева
1006.4 986.3
12 19.08 З 4 15 км зарница 4/4 500 м
[Cb cap]
+28.4 +24.4 79 +40 +40 очень
душно
1008.0 987.9 +34.0
15 19.08 З 4 15 км 3/3 540 м
[Cu med, cong]
+28.0 +23.4 76 +38 +38 очень
душно
1008.5 988.5
18 19.08 З 4 15 км 8/3 540 м
[Cu med, cong Ac trans]
+27.0 +23.3 80 +36 +36 очень
душно
1006.5 986.5
21 19.08 З 3 15 км 8/3 540 м
[Cu med, cong Ac trans]
+27.5 +23.1 77 +37 +37 очень
душно
1006.6 986.5
00 20.08 З 4 20 км мгла {туман} 9/1 600 м
[Cu med, cong Cs]
+27.2 +24.3 84 +38 +41 очень
душно
1008.3 988.1 +25.0
03 20.08 штиль 0 20 км мгла {туман} 9/1 540 м
[Cu med, cong Cs]
+32.0 +27.6 78 +52 +73 опасность
перегрева
1008.0 988.0
06 20.08 ЮВ 2 20 км мгла {туман} 10/1 540 м
[Cu med, cong Cs]
+31.8 +28.9 85 +55 +67 опасность
перегрева
1006.4 986.4
09 20.08 штиль 0 20 км мгла {туман} 10/1 540 м
[Cu med, cong Cs]
+29.2 +26.4 85 +45 +46 опасность
перегрева
1006.4 986.3
12 20.08 З 3 15 км {туман} 9/1 540 м
[Cu med, cong Cs]
+28.0 +24.4 81 +39 +39 очень
душно
1007.7 987.6 +34.0
15 20.08 З 3 15 км {туман} 9/1 540 м
[Cu med, cong Cs]
+28.0 +24.4 81 +39 +39 очень
душно
1007.7 987.6 +34.0
18 20.08 З 4 15 км 9/1 540 м
[Cu med, cong Cs]
+27.8 +24.1 80 +39 +39 очень
душно
1008.0 988.0
21 20.08 З 6 15 км 10/1 540 м
[Cu med, cong Cs]
+27.0 +24.4 86 +38 +38 очень
душно
1006.0 986.0
00 21.08 З 6 25 км 9/1 540 м
[Cu med, cong Cs]
+28.6 +25.0 81 +41 +43 опасность
перегрева
1008.2 988.0 +26.4
03 21.08 З 5 25 км 9/1 600 м
[Cu med, cong Cs]
+32.0 +28.2 80 +53 +61 опасность
перегрева
1007.7 987.7

 

Местоположение метеостанции Балер Радар (Филиппины): широта 15.75 долгота 121.63 высота над уровнем моря 175 м.

В архиве по умолчанию представлена погода в Балер Радар за последнюю неделю. Архивные данные за месяц целиком и за предыдущие месяцы, начиная с января 2011 года, Вы можете получить, выбрав интересующий диапазон дат из раскрывающегося списка и нажав кнопку "Ввод!".


*Определитесь, кто Вы:
робот инопланетянин человек

Внимание! Время в таблицах - всемирное. Для получения местного времени необходимо прибавить поправку, которая равна 8 ч.

Смотрите также архив погоды в соседних городах и на ближайших метеорологических станциях:

Погода в Кабанатуане (Филиппины) (78 км)
Погода в Касигуране (Филиппины) (78 км)
Погода в Инфанте (Филиппины) (111 км)
Погода на Базе ВВС Clark (Филиппины) (132 км)
Погода в Багио (Филиппины) (133 км)
Погода в Научном саду (Филиппины) (141 км)
Погода в Танае (Филиппины) (142 км)
Погода в Дагупане (Филиппины) (143 км)
Погода в Маниле (Филиппины) (148 км)
Погода в Аэропорту Ninoy Aquino (Филиппины) (153 км)

Пояснения к столбцам:

Ветер - указаны скорость ветра в м/с - средняя за 10 мин, порывы в срок и между сроками (в фигурных скобках) и направление, откуда дует ветер: С - северный, СВ - северо-восточный, В - восточный, ЮВ - юго-восточный, Ю - южный, ЮЗ - юго-западный, З - западный, СЗ - северо-западный.
Видимость - горизонтальная дальность видимости в метрах или километрах. При видимости от 1 до 10 км при отсутствии осадков обычно наблюдается дымка, при ухудшении видимости до 1 км и менее - туман. В сухую погоду видимость может ухудшаться дымом, пылью или мглою.
Явления - указаны атмосферные явления, наблюдавшиеся в срок или в последний час перед сроком; фигурными скобками обозначены явления, наблюдавшиеся между сроками (за 1-3 часа до срока); квадратными скобками обозначены град или гололедные отложения с указанием их диаметра в мм.
Облачность - указаны через наклонную черту общая и нижняя облачность в баллах и высота нижней границы облаков в метрах; квадратными скобками обозначены формы облаков: Ci - перистые, Cs - перисто-слоистые, Cc - перисто-кучевые, Ac - высококучевые, As - высокослоистые, Sc - слоисто-кучевые, Ns - слоисто-дождевые, Cu - кучевые, Cb - кучево-дождевые. Подробнее классификацию облаков см. в Атласе облаков (PDF).
T - Температура воздуха - температура, измеренная на высоте 2 м над землей.
Td - Температура точки росы - температура, при понижении до которой содержащийся в воздухе водяной пар достигнет насыщения.
f - Относительная влажность воздуха - влажноcть воздуха, измеренная на высоте 2 м над землей.
Te - Эффективная температура - температура, которую ощущает одетый по сезону человек в тени. Характеристика душности погоды. При расчете учитывается влияние влажности воздуха и скорости ветра на теплоощущения человека.
Tes - Эффективная температура на солнце - температура, которую ощущает человек, с поправкой на солнечный нагрев. Характеристика знойности погоды. Зависит от высоты солнца над горизонтом, облачности и скорости ветра. Ночью, в пасмурную погоду, а также при ветре 12 м/с и более поправка равна нулю.
P - Атмосферное давление - приведенное к уровню моря атмосферное давление.
Po - Атмосферное давление - измеренное на уровне метеостанции атмосферное давление.
Tmin - Минимальная температура - минимум температуры воздуха на высоте 2 м над землей.
Tmax - Максимальная температура - максимум температуры воздуха на высоте 2 м над землей.
R - Количество осадков - Количество выпавших осадков за период времени, мм. При наведении курсора мыши на число - период времени, за который выпало указанное количество осадков.
R24 - Количество осадков - Количество выпавших осадков за 24 часа, мм.
S - Снежный покров - Высота снежного покрова, см. При наведении курсора мыши на число - состояние снежного покрова и степень покрытия местности в баллах.